Starlink 30859

operational
NORAD ID: 58371 Int'l Des: 2023-177 Owner: SPXS Country: US Constellation: starlink
LEOCIRCULAR

关于 Starlink 30859

正在加载描述...

实时位置

正在加载3D地球...

即将过境

高度历史

Altitude vs Time

uPlot chart will show altitude changes over time

两行轨道根数

1 58371U 23177W 25302.80885015 .00000194 00000-0 29415-4 0 9990
2 58371 43.0035 343.0910 0001233 278.8164 81.2539 15.02533053108538
Epoch: Oct 29, 2025 • Age: 33 hours

当前状态

高度 559.4 km
速度 7.58 km/s
星下点 -5.35°S, 143.22°W
发射日期 Nov 18, 2023
运行时间 1.9 years
类型 internet

技术详情

分类 Payload
质量 730.00 kg
干质量 700.00 kg
总质量 730.00 kg
长度 0.30 m
直径 4.10 m
跨度 29.00 m
形状 Box + pan
制造商 SPXS
平台类型 Starlink V2M
阶段状态 In Orbit
所有者/国家 SPXS/US

大型星座

Loading constellations...